Date_Time,Julian_Date,Latitude,Longitude,Instrument_Depth,U,V,Speed,Direction
(yyyy-mm-dd hh:mn:ss UTC),(JD),(+ deg. North),(+ deg. East),(m),(cm/s),(cm/s),(cm/s),(deg True)
1985-07-30 13:45:00 UTC,2446277.072917,26.0833,-83.7000,0017,-13.00,-24.40,27.6471,208.0481
1985-07-30 14:15:00 UTC,2446277.093750,26.0833,-83.7000,0017,-20.50,-18.40,27.5465,228.0901
1985-07-30 14:45:00 UTC,2446277.114583,26.0833,-83.7000,0017,-20.90,-18.10,27.6481,229.1065
1985-07-30 15:15:00 UTC,2446277.135417,26.0833,-83.7000,0017,9.80,-25.80,27.5985,159.2010
1985-07-30 15:45:00 UTC,2446277.156250,26.0833,-83.7000,0017,-24.90,-11.80,27.5545,244.6440
1985-07-30 16:15:00 UTC,2446277.177083,26.0833,-83.7000,0017,-24.90,-11.90,27.5975,244.4563
1985-07-30 16:45:00 UTC,2446277.197917,26.0833,-83.7000,0017,-25.00,-11.80,27.6449,244.7327
1985-07-30 17:15:00 UTC,2446277.218750,26.0833,-83.7000,0017,-25.00,-11.80,27.6449,244.7327
1985-07-30 17:45:00 UTC,2446277.239583,26.0833,-83.7000,0017,-25.40,-10.80,27.6007,246.9650
1985-07-30 18:15:00 UTC,2446277.260417,26.0833,-83.7000,0017,-25.30,-11.00,27.5879,246.5014
1985-07-30 18:45:00 UTC,2446277.281250,26.0833,-83.7000,0017,-25.10,-11.40,27.5676,245.5732
1985-07-30 19:15:00 UTC,2446277.302083,26.0833,-83.7000,0017,-25.10,-11.40,27.5676,245.5732
1985-07-30 19:45:00 UTC,2446277.322917,26.0833,-83.7000,0017,-25.30,-11.00,27.5879,246.5014
1985-07-30 20:15:00 UTC,2446277.343750,26.0833,-83.7000,0017,-25.30,-11.10,27.6279,246.3112
1985-07-30 20:45:00 UTC,2446277.364583,26.0833,-83.7000,0017,-25.30,-11.00,27.5879,246.5014
1985-07-30 21:15:00 UTC,2446277.385417,26.0833,-83.7000,0017,-25.40,-10.70,27.5617,247.1563
1985-07-30 21:45:00 UTC,2446277.406250,26.0833,-83.7000,0017,-23.30,-14.80,27.6031,237.5766
1985-07-30 22:15:00 UTC,2446277.427083,26.0833,-83.7000,0017,-16.70,-18.90,25.2210,221.4638
1985-07-30 22:45:00 UTC,2446277.447917,26.0833,-83.7000,0017,23.80,-1.90,23.8757,94.5643
1985-07-30 23:15:00 UTC,2446277.468750,26.0833,-83.7000,0017,17.80,-8.90,19.9010,116.5650
1985-07-30 23:45:00 UTC,2446277.489583,26.0833,-83.7000,0017,21.50,-15.10,26.2728,125.0813
1985-07-31 00:15:00 UTC,2446277.510417,26.0833,-83.7000,0017,25.60,-19.70,32.3025,127.5794
1985-07-31 00:45:00 UTC,2446277.531250,26.0833,-83.7000,0017,27.60,-16.70,32.2591,121.1770
1985-07-31 01:15:00 UTC,2446277.552083,26.0833,-83.7000,0017,29.10,-20.20,35.4239,124.7668
1985-07-31 01:45:00 UTC,2446277.572917,26.0833,-83.7000,0017,27.80,-20.50,34.5411,126.4054
1985-07-31 02:15:00 UTC,2446277.593750,26.0833,-83.7000,0017,17.40,-35.80,39.8045,154.0787
1985-07-31 02:45:00 UTC,2446277.614583,26.0833,-83.7000,0017,12.20,-31.30,33.5936,158.7053
1985-07-31 03:15:00 UTC,2446277.635417,26.0833,-83.7000,0017,11.50,-40.80,42.3897,164.2588
1985-07-31 03:45:00 UTC,2446277.656250,26.0833,-83.7000,0017,12.20,-47.70,49.2355,165.6533
1985-07-31 04:15:00 UTC,2446277.677083,26.0833,-83.7000,0017,15.10,-42.10,44.7261,160.2686
1985-07-31 04:45:00 UTC,2446277.697917,26.0833,-83.7000,0017,1.20,-52.00,52.0138,178.6780
1985-07-31 05:15:00 UTC,2446277.718750,26.0833,-83.7000,0017,-2.30,-47.00,47.0562,182.8016
1985-07-31 05:45:00 UTC,2446277.739583,26.0833,-83.7000,0017,-11.50,-49.60,50.9157,193.0537
1985-07-31 06:15:00 UTC,2446277.760417,26.0833,-83.7000,0017,-4.50,-60.20,60.3680,184.2750
1985-07-31 06:45:00 UTC,2446277.781250,26.0833,-83.7000,0017,14.60,-64.70,66.3268,167.2838
1985-07-31 07:15:00 UTC,2446277.802083,26.0833,-83.7000,0017,0.00,-63.10,63.1000,180.0000
1985-07-31 07:45:00 UTC,2446277.822917,26.0833,-83.7000,0017,-3.20,-65.70,65.7779,182.7885
1985-07-31 08:15:00 UTC,2446277.843750,26.0833,-83.7000,0017,6.60,-67.80,68.1205,174.4400
1985-07-31 08:45:00 UTC,2446277.864583,26.0833,-83.7000,0017,-6.80,-67.80,68.1401,185.7273
1985-07-31 09:15:00 UTC,2446277.885417,26.0833,-83.7000,0017,-14.40,-61.90,63.5529,193.0960
1985-07-31 09:45:00 UTC,2446277.906250,26.0833,-83.7000,0017,-21.50,-62.20,65.8110,199.0682
1985-07-31 10:15:00 UTC,2446277.927083,26.0833,-83.7000,0017,-24.60,-57.60,62.6332,203.1265
1985-07-31 10:45:00 UTC,2446277.947917,26.0833,-83.7000,0017,-20.60,-56.20,59.8565,200.1303
1985-07-31 11:15:00 UTC,2446277.968750,26.0833,-83.7000,0017,-32.40,-51.50,60.8441,212.1751
1985-07-31 11:45:00 UTC,2446277.989583,26.0833,-83.7000,0017,-41.70,-50.80,65.7231,219.3814
1985-07-31 12:15:00 UTC,2446278.010417,26.0833,-83.7000,0017,-22.50,-59.40,63.5186,200.7461
1985-07-31 12:45:00 UTC,2446278.031250,26.0833,-83.7000,0017,-45.10,-43.50,62.6599,226.0346
1985-07-31 13:15:00 UTC,2446278.052083,26.0833,-83.7000,0017,-35.80,-57.30,67.5643,211.9964
1985-07-31 13:45:00 UTC,2446278.072917,26.0833,-83.7000,0017,-44.30,-31.50,54.3575,234.5849
1985-07-31 14:15:00 UTC,2446278.093750,26.0833,-83.7000,0017,-37.00,-26.50,45.5110,234.3892
1985-07-31 14:45:00 UTC,2446278.114583,26.0833,-83.7000,0017,-32.60,-13.90,35.4397,246.9076
1985-07-31 15:15:00 UTC,2446278.135417,26.0833,-83.7000,0017,-41.40,-20.70,46.2866,243.4350
1985-07-31 15:45:00 UTC,2446278.156250,26.0833,-83.7000,0017,-45.40,-3.30,45.5198,265.8427
1985-07-31 16:15:00 UTC,2446278.177083,26.0833,-83.7000,0017,-39.80,0.40,39.8020,270.5758
1985-07-31 16:45:00 UTC,2446278.197917,26.0833,-83.7000,0017,-42.30,-2.40,42.3680,266.7527
1985-07-31 17:15:00 UTC,2446278.218750,26.0833,-83.7000,0017,-53.20,7.80,53.7688,278.3411
1985-07-31 17:45:00 UTC,2446278.239583,26.0833,-83.7000,0017,-46.40,18.10,49.8053,291.3101
1985-07-31 18:15:00 UTC,2446278.260417,26.0833,-83.7000,0017,-36.40,11.10,38.0548,286.9588
1985-07-31 18:45:00 UTC,2446278.281250,26.0833,-83.7000,0017,-36.90,12.30,38.8960,288.4349
1985-07-31 19:15:00 UTC,2446278.302083,26.0833,-83.7000,0017,-34.10,14.80,37.1732,293.4617
1985-07-31 19:45:00 UTC,2446278.322917,26.0833,-83.7000,0017,-29.30,33.70,44.6562,318.9951
1985-07-31 20:15:00 UTC,2446278.343750,26.0833,-83.7000,0017,-29.10,24.50,38.0402,310.0948
1985-07-31 20:45:00 UTC,2446278.364583,26.0833,-83.7000,0017,-23.40,28.80,37.1080,320.9061
1985-07-31 21:15:00 UTC,2446278.385417,26.0833,-83.7000,0017,-10.80,21.40,23.9708,333.2212
1985-07-31 21:45:00 UTC,2446278.406250,26.0833,-83.7000,0017,-11.70,26.20,28.6937,335.9361
1985-07-31 22:15:00 UTC,2446278.427083,26.0833,-83.7000,0017,-3.50,11.90,12.4040,343.6105
1985-07-31 22:45:00 UTC,2446278.447917,26.0833,-83.7000,0017,-1.70,36.20,36.2399,357.3113
1985-07-31 23:15:00 UTC,2446278.468750,26.0833,-83.7000,0017,4.00,24.80,25.1205,9.1623
1985-07-31 23:45:00 UTC,2446278.489583,26.0833,-83.7000,0017,13.30,33.70,36.2295,21.5371
1985-08-01 00:15:00 UTC,2446278.510417,26.0833,-83.7000,0017,29.90,27.40,40.5558,47.4982
1985-08-01 00:45:00 UTC,2446278.531250,26.0833,-83.7000,0017,21.70,14.80,26.2665,55.7049
1985-08-01 01:15:00 UTC,2446278.552083,26.0833,-83.7000,0017,25.90,14.90,29.8801,60.0886
1985-08-01 01:45:00 UTC,2446278.572917,26.0833,-83.7000,0017,16.70,4.90,17.4040,73.6476
1985-08-01 02:15:00 UTC,2446278.593750,26.0833,-83.7000,0017,41.00,6.40,41.4965,81.1279
1985-08-01 02:45:00 UTC,2446278.614583,26.0833,-83.7000,0017,36.10,2.30,36.1732,86.3545
1985-08-01 03:15:00 UTC,2446278.635417,26.0833,-83.7000,0017,50.60,-9.10,51.4118,100.1952
1985-08-01 03:45:00 UTC,2446278.656250,26.0833,-83.7000,0017,46.40,-16.40,49.2130,109.4659
1985-08-01 04:15:00 UTC,2446278.677083,26.0833,-83.7000,0017,44.60,-27.90,52.6077,122.0285
1985-08-01 04:45:00 UTC,2446278.697917,26.0833,-83.7000,0017,50.50,-34.50,61.1596,124.3396
1985-08-01 05:15:00 UTC,2446278.718750,26.0833,-83.7000,0017,36.70,-47.80,60.2638,142.4836
1985-08-01 05:45:00 UTC,2446278.739583,26.0833,-83.7000,0017,38.90,-52.90,65.6629,143.6711
1985-08-01 06:15:00 UTC,2446278.760417,26.0833,-83.7000,0017,31.50,-55.70,63.9902,150.5105
1985-08-01 06:45:00 UTC,2446278.781250,26.0833,-83.7000,0017,15.90,-63.80,65.7514,166.0060
1985-08-01 07:15:00 UTC,2446278.802083,26.0833,-83.7000,0017,24.10,-61.20,65.7742,158.5059
1985-08-01 07:45:00 UTC,2446278.822917,26.0833,-83.7000,0017,1.70,-70.20,70.2206,178.6128
1985-08-01 08:15:00 UTC,2446278.843750,26.0833,-83.7000,0017,8.30,-67.00,67.5121,172.9381
1985-08-01 08:45:00 UTC,2446278.864583,26.0833,-83.7000,0017,12.20,-70.10,71.1537,170.1273
1985-08-01 09:15:00 UTC,2446278.885417,26.0833,-83.7000,0017,3.40,-69.60,69.6830,177.2033
1985-08-01 09:45:00 UTC,2446278.906250,26.0833,-83.7000,0017,-3.30,-65.10,65.1836,182.9019
1985-08-01 10:15:00 UTC,2446278.927083,26.0833,-83.7000,0017,-18.60,-71.20,73.5894,194.6405
1985-08-01 10:45:00 UTC,2446278.947917,26.0833,-83.7000,0017,-18.10,-69.30,71.6247,194.6377
1985-08-01 11:15:00 UTC,2446278.968750,26.0833,-83.7000,0017,-25.30,-67.60,72.1793,200.5189
1985-08-01 11:45:00 UTC,2446278.989583,26.0833,-83.7000,0017,-34.90,-60.40,69.7579,210.0200
1985-08-01 12:15:00 UTC,2446279.010417,26.0833,-83.7000,0017,-29.80,-61.30,68.1596,205.9259
1985-08-01 12:45:00 UTC,2446279.031250,26.0833,-83.7000,0017,-39.30,-57.60,69.7298,214.3054
1985-08-01 13:15:00 UTC,2446279.052083,26.0833,-83.7000,0017,-46.40,-46.60,65.7611,224.8768
1985-08-01 13:45:00 UTC,2446279.072917,26.0833,-83.7000,0017,-38.00,-40.80,55.7552,222.9650
1985-08-01 14:15:00 UTC,2446279.093750,26.0833,-83.7000,0017,-45.90,-31.60,55.7258,235.4544
1985-08-01 14:45:00 UTC,2446279.114583,26.0833,-83.7000,0017,-34.50,-38.20,51.4732,222.0865
1985-08-01 15:15:00 UTC,2446279.135417,26.0833,-83.7000,0017,-49.50,-22.40,54.3324,245.6521
1985-08-01 15:45:00 UTC,2446279.156250,26.0833,-83.7000,0017,-35.30,-23.50,42.4068,236.3474
1985-08-01 16:15:00 UTC,2446279.177083,26.0833,-83.7000,0017,-49.80,-29.20,57.7294,239.6150
1985-08-01 16:45:00 UTC,2446279.197917,26.0833,-83.7000,0017,-41.30,-17.30,44.7770,247.2719
1985-08-01 17:15:00 UTC,2446279.218750,26.0833,-83.7000,0017,-46.00,-17.60,49.2520,249.0627
1985-08-01 17:45:00 UTC,2446279.239583,26.0833,-83.7000,0017,-44.60,-14.90,47.0231,251.5265
1985-08-01 18:15:00 UTC,2446279.260417,26.0833,-83.7000,0017,-20.00,-1.40,20.0489,265.9958
1985-08-01 18:45:00 UTC,2446279.281250,26.0833,-83.7000,0017,-50.60,-9.80,51.5403,259.0389
1985-08-01 19:15:00 UTC,2446279.302083,26.0833,-83.7000,0017,-49.50,12.10,50.9574,283.7363
1985-08-01 19:45:00 UTC,2446279.322917,26.0833,-83.7000,0017,-41.70,7.70,42.4050,280.4620
1985-08-01 20:15:00 UTC,2446279.343750,26.0833,-83.7000,0017,-20.00,0.40,20.0040,271.1458
1985-08-01 20:45:00 UTC,2446279.364583,26.0833,-83.7000,0017,-40.20,10.40,41.5235,284.5048
1985-08-01 21:15:00 UTC,2446279.385417,26.0833,-83.7000,0017,-29.70,9.30,31.1220,287.3870
1985-08-01 21:45:00 UTC,2446279.406250,26.0833,-83.7000,0017,-30.30,16.60,34.5492,298.7163
1985-08-01 22:15:00 UTC,2446279.427083,26.0833,-83.7000,0017,-42.30,29.30,51.4566,304.7092
1985-08-01 22:45:00 UTC,2446279.447917,26.0833,-83.7000,0017,-34.60,17.80,38.9102,297.2236
1985-08-01 23:15:00 UTC,2446279.468750,26.0833,-83.7000,0017,-22.70,26.00,34.5151,318.8766
1985-08-01 23:45:00 UTC,2446279.489583,26.0833,-83.7000,0017,-14.90,28.70,32.3373,332.5633
1985-08-02 00:15:00 UTC,2446279.510417,26.0833,-83.7000,0017,-10.90,35.50,37.1357,342.9313
1985-08-02 00:45:00 UTC,2446279.531250,26.0833,-83.7000,0017,-2.60,37.90,37.9891,356.0756
1985-08-02 01:15:00 UTC,2446279.552083,26.0833,-83.7000,0017,7.80,33.60,34.4935,13.0693
1985-08-02 01:45:00 UTC,2446279.572917,26.0833,-83.7000,0017,19.80,25.40,32.2056,37.9374
1985-08-02 02:15:00 UTC,2446279.593750,26.0833,-83.7000,0017,15.70,23.90,28.5955,33.3011
1985-08-02 02:45:00 UTC,2446279.614583,26.0833,-83.7000,0017,35.60,13.30,38.0033,69.5145
1985-08-02 03:15:00 UTC,2446279.635417,26.0833,-83.7000,0017,38.50,17.60,42.3321,65.4328
1985-08-02 03:45:00 UTC,2446279.656250,26.0833,-83.7000,0017,44.00,11.30,45.4279,75.5967
1985-08-02 04:15:00 UTC,2446279.677083,26.0833,-83.7000,0017,49.10,2.10,49.1449,87.5510
1985-08-02 04:45:00 UTC,2446279.697917,26.0833,-83.7000,0017,47.10,-14.10,49.1652,106.6658
1985-08-02 05:15:00 UTC,2446279.718750,26.0833,-83.7000,0017,47.60,-39.20,61.6636,129.4725
1985-08-02 05:45:00 UTC,2446279.739583,26.0833,-83.7000,0017,36.80,-32.70,49.2294,131.6239
1985-08-02 06:15:00 UTC,2446279.760417,26.0833,-83.7000,0017,35.60,-37.20,51.4898,136.2590
1985-08-02 06:45:00 UTC,2446279.781250,26.0833,-83.7000,0017,38.40,-37.50,53.6732,134.3206
1985-08-02 07:15:00 UTC,2446279.802083,26.0833,-83.7000,0017,38.10,-36.30,52.6241,133.6141
1985-08-02 07:45:00 UTC,2446279.822917,26.0833,-83.7000,0017,25.50,-52.50,58.3652,154.0935
1985-08-02 08:15:00 UTC,2446279.843750,26.0833,-83.7000,0017,18.40,-60.30,63.0448,163.0309
1985-08-02 08:45:00 UTC,2446279.864583,26.0833,-83.7000,0017,20.90,-63.60,66.9460,161.8086
1985-08-02 09:15:00 UTC,2446279.885417,26.0833,-83.7000,0017,-3.30,-66.30,66.3821,182.8495
1985-08-02 09:45:00 UTC,2446279.906250,26.0833,-83.7000,0017,8.60,-71.10,71.6182,173.1032
1985-08-02 10:15:00 UTC,2446279.927083,26.0833,-83.7000,0017,-10.70,-71.30,72.0984,188.5347
1985-08-02 10:45:00 UTC,2446279.947917,26.0833,-83.7000,0017,-8.50,-67.60,68.1323,187.1667
1985-08-02 11:15:00 UTC,2446279.968750,26.0833,-83.7000,0017,-17.60,-68.90,71.1124,194.3294
1985-08-02 11:45:00 UTC,2446279.989583,26.0833,-83.7000,0017,-4.80,-64.40,64.5786,184.2626
1985-08-02 12:15:00 UTC,2446280.010417,26.0833,-83.7000,0017,-3.20,-63.50,63.5806,182.8849
1985-08-02 12:45:00 UTC,2446280.031250,26.0833,-83.7000,0017,-25.20,-54.80,60.3165,204.6955
1985-08-02 13:15:00 UTC,2446280.052083,26.0833,-83.7000,0017,-30.20,-63.90,70.6771,205.2961
1985-08-02 13:45:00 UTC,2446280.072917,26.0833,-83.7000,0017,-32.60,-52.40,61.7132,211.8873
1985-08-02 14:15:00 UTC,2446280.093750,26.0833,-83.7000,0017,-29.80,-38.40,48.6066,217.8130
1985-08-02 14:45:00 UTC,2446280.114583,26.0833,-83.7000,0017,-22.50,-45.10,50.4010,206.5142
1985-08-02 15:15:00 UTC,2446280.135417,26.0833,-83.7000,0017,-26.50,-37.00,45.5110,215.6109
1985-08-02 15:45:00 UTC,2446280.156250,26.0833,-83.7000,0017,-19.00,-37.90,42.3959,206.6255
1985-08-02 16:15:00 UTC,2446280.177083,26.0833,-83.7000,0017,-30.70,-24.10,39.0295,231.8675
1985-08-02 16:45:00 UTC,2446280.197917,26.0833,-83.7000,0017,-37.50,-25.80,45.5180,235.4720
1985-08-02 17:15:00 UTC,2446280.218750,26.0833,-83.7000,0017,-38.70,-17.30,42.3908,245.9140
1985-08-02 17:45:00 UTC,2446280.239583,26.0833,-83.7000,0017,-38.00,-19.00,42.4853,243.4350
1985-08-02 18:15:00 UTC,2446280.260417,26.0833,-83.7000,0017,-33.30,-14.50,36.3200,246.4700
1985-08-02 18:45:00 UTC,2446280.281250,26.0833,-83.7000,0017,-51.90,-9.00,52.6746,260.1622
1985-08-02 19:15:00 UTC,2446280.302083,26.0833,-83.7000,0017,-31.10,-2.20,31.1777,265.9537
1985-08-02 19:45:00 UTC,2446280.322917,26.0833,-83.7000,0017,-48.60,-0.30,48.6009,269.6463
1985-08-02 20:15:00 UTC,2446280.343750,26.0833,-83.7000,0017,-43.60,9.80,44.6878,282.6679
1985-08-02 20:45:00 UTC,2446280.364583,26.0833,-83.7000,0017,-41.00,6.60,41.5278,279.1448
1985-08-02 21:15:00 UTC,2446280.385417,26.0833,-83.7000,0017,-36.50,7.10,37.1841,281.0078
1985-08-02 21:45:00 UTC,2446280.406250,26.0833,-83.7000,0017,-29.80,15.30,33.4982,297.1770
1985-08-02 22:15:00 UTC,2446280.427083,26.0833,-83.7000,0017,-25.20,7.90,26.4093,287.4058
1985-08-02 22:45:00 UTC,2446280.447917,26.0833,-83.7000,0017,-14.40,10.00,17.5317,304.7778
1985-08-02 23:15:00 UTC,2446280.468750,26.0833,-83.7000,0017,-20.90,19.80,28.7898,313.4518
1985-08-02 23:45:00 UTC,2446280.489583,26.0833,-83.7000,0017,-18.10,20.70,27.4973,318.8337
1985-08-03 00:15:00 UTC,2446280.510417,26.0833,-83.7000,0017,-8.40,15.30,17.4542,331.2324
1985-08-03 00:45:00 UTC,2446280.531250,26.0833,-83.7000,0017,-2.80,9.50,9.9040,343.5778
1985-08-03 01:15:00 UTC,2446280.552083,26.0833,-83.7000,0017,-6.30,21.50,22.4040,343.6682
1985-08-03 01:45:00 UTC,2446280.572917,26.0833,-83.7000,0017,-1.00,19.90,19.9251,357.1232
1985-08-03 02:15:00 UTC,2446280.593750,26.0833,-83.7000,0017,6.50,25.50,26.3154,14.3003
1985-08-03 02:45:00 UTC,2446280.614583,26.0833,-83.7000,0017,10.70,19.70,22.4183,28.5085
1985-08-03 03:15:00 UTC,2446280.635417,26.0833,-83.7000,0017,11.50,9.50,14.9164,50.4403
1985-08-03 03:45:00 UTC,2446280.656250,26.0833,-83.7000,0017,24.60,16.90,29.8458,55.5112
1985-08-03 04:15:00 UTC,2446280.677083,26.0833,-83.7000,0017,32.60,19.40,37.9357,59.2435
1985-08-03 04:45:00 UTC,2446280.697917,26.0833,-83.7000,0017,38.70,15.00,41.5053,68.8138
1985-08-03 05:15:00 UTC,2446280.718750,26.0833,-83.7000,0017,38.80,2.00,38.8515,87.0492
1985-08-03 05:45:00 UTC,2446280.739583,26.0833,-83.7000,0017,32.50,7.90,33.4464,76.3377
1985-08-03 06:15:00 UTC,2446280.760417,26.0833,-83.7000,0017,36.50,6.60,37.0919,79.7504
1985-08-03 06:45:00 UTC,2446280.781250,26.0833,-83.7000,0017,38.60,4.60,38.8731,83.2040
1985-08-03 07:15:00 UTC,2446280.802083,26.0833,-83.7000,0017,45.90,-10.10,46.9981,102.4098
1985-08-03 07:45:00 UTC,2446280.822917,26.0833,-83.7000,0017,39.00,-21.80,44.6793,119.2041
1985-08-03 08:15:00 UTC,2446280.843750,26.0833,-83.7000,0017,31.70,-34.70,46.9998,137.5869
1985-08-03 08:45:00 UTC,2446280.864583,26.0833,-83.7000,0017,30.50,-38.70,49.2741,141.7579
1985-08-03 09:15:00 UTC,2446280.885417,26.0833,-83.7000,0017,25.80,-37.50,45.5180,145.4720
1985-08-03 09:45:00 UTC,2446280.906250,26.0833,-83.7000,0017,15.80,-47.80,50.3436,161.7090
1985-08-03 10:15:00 UTC,2446280.927083,26.0833,-83.7000,0017,26.20,-44.30,51.4678,149.3990
1985-08-03 10:45:00 UTC,2446280.947917,26.0833,-83.7000,0017,21.10,-44.50,49.2490,154.6317
1985-08-03 11:15:00 UTC,2446280.968750,26.0833,-83.7000,0017,12.00,-48.90,50.3509,166.2121
1985-08-03 11:45:00 UTC,2446280.989583,26.0833,-83.7000,0017,7.30,-48.70,49.2441,171.4750
1985-08-03 12:15:00 UTC,2446281.010417,26.0833,-83.7000,0017,13.10,-42.70,44.6643,162.9444
1985-08-03 12:45:00 UTC,2446281.031250,26.0833,-83.7000,0017,-6.50,-52.80,53.1986,187.0182
1985-08-03 13:15:00 UTC,2446281.052083,26.0833,-83.7000,0017,-8.30,-32.50,33.5431,194.3262
1985-08-03 13:45:00 UTC,2446281.072917,26.0833,-83.7000,0017,-17.70,-44.40,47.7980,201.7346
1985-08-03 14:15:00 UTC,2446281.093750,26.0833,-83.7000,0017,-21.20,-37.70,43.2519,209.3505
1985-08-03 14:45:00 UTC,2446281.114583,26.0833,-83.7000,0017,-16.10,-39.30,42.4700,202.2774
1985-08-03 15:15:00 UTC,2446281.135417,26.0833,-83.7000,0017,-23.20,-35.50,42.4086,213.1655
1985-08-03 15:45:00 UTC,2446281.156250,26.0833,-83.7000,0017,-8.50,-36.20,37.1845,193.2141
1985-08-03 16:15:00 UTC,2446281.177083,26.0833,-83.7000,0017,-24.10,-42.20,48.5968,209.7303
1985-08-03 16:45:00 UTC,2446281.197917,26.0833,-83.7000,0017,-14.30,-29.10,32.4238,206.1699
1985-08-03 17:15:00 UTC,2446281.218750,26.0833,-83.7000,0017,-13.80,-31.70,34.5735,203.5250
1985-08-03 17:45:00 UTC,2446281.239583,26.0833,-83.7000,0017,-17.30,-21.50,27.5960,218.8219
1985-08-03 18:15:00 UTC,2446281.260417,26.0833,-83.7000,0017,-19.50,-17.80,26.4025,227.6095
1985-08-03 18:45:00 UTC,2446281.281250,26.0833,-83.7000,0017,-25.90,-26.70,37.1981,224.1286
1985-08-03 19:15:00 UTC,2446281.302083,26.0833,-83.7000,0017,-30.20,-11.60,32.3512,248.9879
1985-08-03 19:45:00 UTC,2446281.322917,26.0833,-83.7000,0017,-26.80,-21.80,34.5468,230.8740
1985-08-03 20:15:00 UTC,2446281.343750,26.0833,-83.7000,0017,-25.20,-13.90,28.7793,241.1194
1985-08-03 20:45:00 UTC,2446281.364583,26.0833,-83.7000,0017,-30.70,-13.70,33.6181,245.9510
1985-08-03 21:15:00 UTC,2446281.385417,26.0833,-83.7000,0017,-29.60,-15.80,33.5529,241.9074
1985-08-03 21:45:00 UTC,2446281.406250,26.0833,-83.7000,0017,-30.30,-14.50,33.5908,244.4267
1985-08-03 22:15:00 UTC,2446281.427083,26.0833,-83.7000,0017,-26.80,-10.60,28.8201,248.4201
1985-08-03 22:45:00 UTC,2446281.447917,26.0833,-83.7000,0017,-31.90,-5.30,32.3373,260.5668
1985-08-03 23:15:00 UTC,2446281.468750,26.0833,-83.7000,0017,-37.20,0.30,37.2012,270.4621
1985-08-03 23:45:00 UTC,2446281.489583,26.0833,-83.7000,0017,-38.20,7.40,38.9102,280.9634
1985-08-04 00:15:00 UTC,2446281.510417,26.0833,-83.7000,0017,-36.20,2.60,36.2933,274.1081
1985-08-04 00:45:00 UTC,2446281.531250,26.0833,-83.7000,0017,-27.70,7.90,28.8045,285.9181
1985-08-04 01:15:00 UTC,2446281.552083,26.0833,-83.7000,0017,-16.30,6.50,17.5482,291.7408
1985-08-04 01:45:00 UTC,2446281.572917,26.0833,-83.7000,0017,-16.50,11.30,19.9985,304.4052
1985-08-04 02:15:00 UTC,2446281.593750,26.0833,-83.7000,0017,-10.10,11.10,15.0073,317.7006
1985-08-04 02:45:00 UTC,2446281.614583,26.0833,-83.7000,0017,-3.50,11.90,12.4040,343.6105
1985-08-04 03:15:00 UTC,2446281.635417,26.0833,-83.7000,0017,2.70,14.70,14.9459,10.4077
1985-08-04 03:45:00 UTC,2446281.656250,26.0833,-83.7000,0017,14.70,27.40,31.0942,28.2134
1985-08-04 04:15:00 UTC,2446281.677083,26.0833,-83.7000,0017,14.00,14.10,19.8698,44.7961
1985-08-04 04:45:00 UTC,2446281.697917,26.0833,-83.7000,0017,34.30,16.30,37.9760,64.5821
1985-08-04 05:15:00 UTC,2446281.718750,26.0833,-83.7000,0017,40.80,7.20,41.4304,79.9920
1985-08-04 05:45:00 UTC,2446281.739583,26.0833,-83.7000,0017,45.20,12.80,46.9774,74.1886
1985-08-04 06:15:00 UTC,2446281.760417,26.0833,-83.7000,0017,42.60,6.50,43.0930,81.3246
1985-08-04 06:45:00 UTC,2446281.781250,26.0833,-83.7000,0017,51.20,4.80,51.4245,84.6442
1985-08-04 07:15:00 UTC,2446281.802083,26.0833,-83.7000,0017,34.40,-1.40,34.4285,92.3305
1985-08-04 07:45:00 UTC,2446281.822917,26.0833,-83.7000,0017,33.10,-12.40,35.3464,110.5371
1985-08-04 08:15:00 UTC,2446281.843750,26.0833,-83.7000,0017,35.70,-6.20,36.2344,99.8522
1985-08-04 08:45:00 UTC,2446281.864583,26.0833,-83.7000,0017,31.70,-19.30,37.1131,121.3344
1985-08-04 09:15:00 UTC,2446281.885417,26.0833,-83.7000,0017,32.90,-17.20,37.1248,117.6004
1985-08-04 09:45:00 UTC,2446281.906250,26.0833,-83.7000,0017,28.10,-24.30,37.1497,130.8522
1985-08-04 10:15:00 UTC,2446281.927083,26.0833,-83.7000,0017,31.20,-29.80,43.1449,133.6852
1985-08-04 10:45:00 UTC,2446281.947917,26.0833,-83.7000,0017,14.80,-30.10,33.5418,153.8169
1985-08-04 11:15:00 UTC,2446281.968750,26.0833,-83.7000,0017,19.90,-39.20,43.9619,153.0852
1985-08-04 11:45:00 UTC,2446281.989583,26.0833,-83.7000,0017,20.60,-32.00,38.0573,147.2286
1985-08-04 12:15:00 UTC,2446282.010417,26.0833,-83.7000,0017,10.90,-35.50,37.1357,162.9313
1985-08-04 12:45:00 UTC,2446282.031250,26.0833,-83.7000,0017,10.10,-35.80,37.1974,164.2450
1985-08-04 13:15:00 UTC,2446282.052083,26.0833,-83.7000,0017,7.50,-52.10,52.6371,171.8083
1985-08-04 13:45:00 UTC,2446282.072917,26.0833,-83.7000,0017,2.90,-23.80,23.9760,173.0528
1985-08-04 14:15:00 UTC,2446282.093750,26.0833,-83.7000,0017,5.60,-28.20,28.7507,168.7682
1985-08-04 14:45:00 UTC,2446282.114583,26.0833,-83.7000,0017,6.40,-37.50,38.0422,170.3148
1985-08-04 15:15:00 UTC,2446282.135417,26.0833,-83.7000,0017,-0.90,-33.60,33.6120,181.5343
1985-08-04 15:45:00 UTC,2446282.156250,26.0833,-83.7000,0017,0.00,-34.60,34.6000,180.0000
1985-08-04 16:15:00 UTC,2446282.177083,26.0833,-83.7000,0017,-2.20,-22.40,22.5078,185.6093
1985-08-04 16:45:00 UTC,2446282.197917,26.0833,-83.7000,0017,-5.60,-36.80,37.2236,188.6526
1985-08-04 17:15:00 UTC,2446282.218750,26.0833,-83.7000,0017,-3.00,-40.60,40.7107,184.2260
1985-08-04 17:45:00 UTC,2446282.239583,26.0833,-83.7000,0017,-10.90,-25.30,27.5481,203.3078
1985-08-04 18:15:00 UTC,2446282.260417,26.0833,-83.7000,0017,-7.40,-41.80,42.4500,190.0393
1985-08-04 18:45:00 UTC,2446282.281250,26.0833,-83.7000,0017,-20.30,-31.20,37.2227,213.0497
1985-08-04 19:15:00 UTC,2446282.302083,26.0833,-83.7000,0017,-15.00,-23.20,27.6268,212.8848
1985-08-04 19:45:00 UTC,2446282.322917,26.0833,-83.7000,0017,-18.20,-22.30,28.7842,219.2194
1985-08-04 20:15:00 UTC,2446282.343750,26.0833,-83.7000,0017,-36.80,-19.40,41.6005,242.2030
1985-08-04 20:45:00 UTC,2446282.364583,26.0833,-83.7000,0017,-37.40,-25.90,45.4925,235.2969
1985-08-04 21:15:00 UTC,2446282.385417,26.0833,-83.7000,0017,-40.90,-18.20,44.7666,246.0115
1985-08-04 21:45:00 UTC,2446282.406250,26.0833,-83.7000,0017,-40.30,-10.20,41.5708,255.7966
1985-08-04 22:15:00 UTC,2446282.427083,26.0833,-83.7000,0017,-39.90,-8.20,40.7339,258.3866
1985-08-04 22:45:00 UTC,2446282.447917,26.0833,-83.7000,0017,-43.10,2.00,43.1464,272.6568
1985-08-04 23:15:00 UTC,2446282.468750,26.0833,-83.7000,0017,-44.30,6.20,44.7318,277.9671
1985-08-04 23:45:00 UTC,2446282.489583,26.0833,-83.7000,0017,-37.00,8.90,38.0554,283.5250
1985-08-05 00:15:00 UTC,2446282.510417,26.0833,-83.7000,0017,-21.60,6.30,22.5000,286.2602